Tracking 35331 objects as of 16-Sep-2026
HD Live streaming from Space Station
objects crossing your sky now

SL-7 DEB


SL-7 DEB is no longer on orbit


NORAD ID: 3645
Int'l Code: 1968-117R
Launch date: December 19, 1968
Source: Commonwealth of Independent States (former USSR) (CIS)
Launch site: PLESETSK MISSILE AND SPACE COMPLEX (PKMTR)
Decay date: 1969-03-08

Note: This is SATELLITE DEBRIS
Your satellite tracking list
Your tracking list is empty




NASA's NSSDC Master Catalog

Two Line Element Set (TLE):
1 03645U 68117  R 69065.07451735  .02534479 +00000-0 +00000-0 0  9993
2 03645 070.8454 248.5752 0031380 358.8842 001.2186 16.03282269011340
Source of the keplerian elements: AFSPC